Time,TemperatureF,DewpointF,PressureIn,WindDirection,WindDirectionDegrees,WindSpeedMPH,WindSpeedGustMPH,Humidity,HourlyPrecipIn,Conditions,Clouds,dailyrainin,SoftwareType,DateUTC
2013-01-24 00:00:00,15.4,10.4,30.16,ESE,104,0.0,0.0,80,0.00,,---,0.00,VWS V14.01,2013-01-24 05:00:00,
2013-01-24 00:01:00,15.4,10.6,30.15,ESE,105,0.0,0.0,81,0.00,,---,0.00,VWS V14.01,2013-01-24 05:01:00,
2013-01-24 00:06:00,15.4,10.6,30.15,ESE,105,0.0,0.0,81,0.00,,---,0.00,VWS V14.01,2013-01-24 05:06:00,
2013-01-24 00:11:00,15.4,11.2,30.15,ESE,105,0.0,0.0,83,0.00,,---,0.00,VWS V14.01,2013-01-24 05:11:00,
2013-01-24 00:16:00,15.4,10.9,30.15,ESE,105,0.0,0.0,82,0.00,,---,0.00,VWS V14.01,2013-01-24 05:16:00,
2013-01-24 00:21:00,15.3,11.1,30.14,ESE,106,0.0,0.0,83,0.00,,---,0.00,VWS V14.01,2013-01-24 05:21:00,
2013-01-24 00:26:00,15.2,11.0,30.13,ESE,105,0.0,0.0,83,0.00,,---,0.00,VWS V14.01,2013-01-24 05:26:00,
2013-01-24 00:31:00,15.2,11.0,30.13,ESE,105,0.0,0.0,83,0.00,,---,0.00,VWS V14.01,2013-01-24 05:31:00,
2013-01-24 00:36:00,15.2,11.2,30.14,ESE,105,0.0,0.0,84,0.00,,---,0.00,VWS V14.01,2013-01-24 05:36:00,
2013-01-24 00:42:00,15.2,11.2,30.14,ESE,105,0.0,0.0,84,0.00,,---,0.00,VWS V14.01,2013-01-24 05:42:00,
2013-01-24 00:47:00,15.1,11.4,30.14,ESE,108,0.0,0.0,85,0.00,,---,0.00,VWS V14.01,2013-01-24 05:47:00,
2013-01-24 00:52:00,15.1,11.4,30.13,ESE,113,0.0,0.0,85,0.00,,---,0.00,VWS V14.01,2013-01-24 05:52:00,
2013-01-24 00:57:00,15.1,11.7,30.13,ESE,108,0.0,0.0,86,0.00,,---,0.00,VWS V14.01,2013-01-24 05:57:00,
2013-01-24 01:02:00,15.0,11.6,30.13,ESE,108,0.0,1.0,86,0.00,,---,0.00,VWS V14.01,2013-01-24 06:02:00,
2013-01-24 01:07:00,14.9,11.5,30.13,ESE,116,0.0,0.0,86,0.00,,---,0.00,VWS V14.01,2013-01-24 06:07:00,
2013-01-24 01:12:00,14.9,11.7,30.13,ESE,108,0.0,0.0,87,0.00,,---,0.00,VWS V14.01,2013-01-24 06:12:00,
2013-01-24 01:17:00,15.0,11.8,30.13,ESE,110,0.0,0.0,87,0.00,,---,0.00,VWS V14.01,2013-01-24 06:17:00,
2013-01-24 01:22:00,14.9,11.7,30.12,East,83,0.0,1.0,87,0.00,,---,0.00,VWS V14.01,2013-01-24 06:22:00,
2013-01-24 01:28:00,14.9,12.0,30.12,SE,127,0.0,0.0,88,0.00,,---,0.00,VWS V14.01,2013-01-24 06:28:00,
2013-01-24 01:33:00,14.9,12.0,30.12,ESE,110,0.0,0.0,88,0.00,,---,0.00,VWS V14.01,2013-01-24 06:33:00,
2013-01-24 01:38:00,14.9,12.2,30.12,ESE,105,0.0,0.0,89,0.00,,---,0.00,VWS V14.01,2013-01-24 06:38:00,
2013-01-24 01:43:00,14.9,12.2,30.12,East,83,0.0,0.0,89,0.00,,---,0.00,VWS V14.01,2013-01-24 06:43:00,
2013-01-24 01:48:00,15.0,12.4,30.12,East,100,0.0,0.0,89,0.00,,---,0.00,VWS V14.01,2013-01-24 06:48:00,
2013-01-24 01:53:00,14.9,12.2,30.12,ESE,120,0.0,1.0,89,0.00,,---,0.00,VWS V14.01,2013-01-24 06:53:00,
2013-01-24 01:59:00,14.9,12.2,30.12,ESE,108,1.0,1.0,89,0.00,,---,0.00,VWS V14.01,2013-01-24 06:59:00,
2013-01-24 02:04:00,14.9,12.2,30.12,East,90,0.0,0.0,89,0.00,,---,0.00,VWS V14.01,2013-01-24 07:04:00,
2013-01-24 02:09:00,14.8,12.1,30.12,SE,125,0.0,1.0,89,0.00,,---,0.00,VWS V14.01,2013-01-24 07:09:00,
2013-01-24 02:14:00,14.7,12.1,30.11,ESE,113,0.0,2.0,89,0.00,,---,0.00,VWS V14.01,2013-01-24 07:14:00,
2013-01-24 02:19:00,14.6,11.9,30.12,ESE,103,1.0,2.0,89,0.00,,---,0.00,VWS V14.01,2013-01-24 07:19:00,
2013-01-24 02:24:00,14.4,11.8,30.12,SE,144,2.0,2.0,89,0.00,,---,0.00,VWS V14.01,2013-01-24 07:24:00,
2013-01-24 02:29:00,14.4,11.8,30.12,SE,124,1.0,1.0,89,0.00,,---,0.00,VWS V14.01,2013-01-24 07:29:00,
2013-01-24 02:34:00,14.3,11.7,30.12,SE,133,1.0,1.0,89,0.00,,---,0.00,VWS V14.01,2013-01-24 07:34:00,
2013-01-24 02:39:00,14.3,11.7,30.12,ESE,122,0.0,1.0,89,0.00,,---,0.00,VWS V14.01,2013-01-24 07:39:00,
2013-01-24 02:44:00,14.3,11.7,30.12,East,101,1.0,1.0,89,0.00,,---,0.00,VWS V14.01,2013-01-24 07:44:00,
2013-01-24 02:49:00,14.4,12.0,30.12,East,82,0.0,1.0,90,0.00,,---,0.00,VWS V14.01,2013-01-24 07:49:00,
2013-01-24 02:54:00,14.3,11.7,30.12,ESE,110,1.0,1.0,89,0.00,,---,0.00,VWS V14.01,2013-01-24 07:54:00,
2013-01-24 03:00:00,14.3,11.7,30.12,ENE,77,1.0,1.0,89,0.00,,---,0.00,VWS V14.01,2013-01-24 08:00:00,
2013-01-24 03:05:00,14.3,11.7,30.12,East,88,0.0,0.0,89,0.00,,---,0.00,VWS V14.01,2013-01-24 08:05:00,
2013-01-24 03:10:00,14.2,11.6,30.12,East,96,0.0,0.0,89,0.00,,---,0.00,VWS V14.01,2013-01-24 08:10:00,
2013-01-24 03:15:00,14.2,11.6,30.12,ESE,122,1.0,1.0,89,0.00,,---,0.00,VWS V14.01,2013-01-24 08:15:00,
2013-01-24 03:20:00,14.2,11.6,30.12,ESE,115,0.0,2.0,89,0.00,,---,0.00,VWS V14.01,2013-01-24 08:20:00,
2013-01-24 03:25:00,14.1,11.5,30.12,ESE,102,0.0,0.0,89,0.00,,---,0.00,VWS V14.01,2013-01-24 08:25:00,
2013-01-24 03:30:00,14.1,11.5,30.12,ESE,120,0.0,1.0,89,0.00,,---,0.00,VWS V14.01,2013-01-24 08:30:00,
2013-01-24 03:35:00,14.0,11.4,30.13,ESE,108,0.0,0.0,89,0.00,,---,0.00,VWS V14.01,2013-01-24 08:35:00,
2013-01-24 03:40:00,14.0,11.4,30.13,NE,42,0.0,1.0,89,0.00,,---,0.00,VWS V14.01,2013-01-24 08:40:00,
2013-01-24 03:45:00,14.0,11.1,30.13,NE,43,0.0,0.0,88,0.00,,---,0.00,VWS V14.01,2013-01-24 08:45:00,
2013-01-24 03:51:00,14.0,11.1,30.13,SSE,165,0.0,0.0,88,0.00,,---,0.00,VWS V14.01,2013-01-24 08:51:00,
2013-01-24 03:56:00,14.0,11.1,30.12,SSE,165,0.0,0.0,88,0.00,,---,0.00,VWS V14.01,2013-01-24 08:56:00,
2013-01-24 04:01:00,14.0,11.1,30.13,SSE,165,0.0,0.0,88,0.00,,---,0.00,VWS V14.01,2013-01-24 09:01:00,
2013-01-24 04:06:00,14.0,11.1,30.12,SSE,165,0.0,0.0,88,0.00,,---,0.00,VWS V14.01,2013-01-24 09:06:00,
2013-01-24 04:11:00,14.0,11.1,30.13,SSE,165,0.0,0.0,88,0.00,,---,0.00,VWS V14.01,2013-01-24 09:11:00,
2013-01-24 04:16:00,13.9,11.0,30.13,SSE,165,0.0,0.0,88,0.00,,---,0.00,VWS V14.01,2013-01-24 09:16:00,
2013-01-24 04:21:00,14.0,11.4,30.13,SSE,165,0.0,0.0,89,0.00,,---,0.00,VWS V14.01,2013-01-24 09:21:00,
2013-01-24 04:26:00,14.0,11.4,30.13,SSE,166,0.0,0.0,89,0.00,,---,0.00,VWS V14.01,2013-01-24 09:26:00,
2013-01-24 04:32:00,14.0,11.4,30.14,SSE,165,0.0,0.0,89,0.00,,---,0.00,VWS V14.01,2013-01-24 09:32:00,
2013-01-24 04:37:00,13.9,11.3,30.14,SSE,166,0.0,0.0,89,0.00,,---,0.00,VWS V14.01,2013-01-24 09:37:00,
2013-01-24 04:42:00,13.9,11.3,30.14,SSE,167,0.0,0.0,89,0.00,,---,0.00,VWS V14.01,2013-01-24 09:42:00,
2013-01-24 04:47:00,13.9,11.3,30.14,SSE,165,0.0,0.0,89,0.00,,---,0.00,VWS V14.01,2013-01-24 09:47:00,
2013-01-24 04:52:00,13.8,11.2,30.15,SSE,165,0.0,0.0,89,0.00,,---,0.00,VWS V14.01,2013-01-24 09:52:00,
2013-01-24 04:57:00,13.8,11.2,30.15,SSE,165,0.0,0.0,89,0.00,,---,0.00,VWS V14.01,2013-01-24 09:57:00,
2013-01-24 05:02:00,13.8,11.2,30.15,West,266,0.0,0.0,89,0.00,,---,0.00,VWS V14.01,2013-01-24 10:02:00,
2013-01-24 05:07:00,13.8,11.2,30.16,West,266,0.0,0.0,89,0.00,,---,0.00,VWS V14.01,2013-01-24 10:07:00,
2013-01-24 05:12:00,13.8,11.2,30.16,SW,221,0.0,0.0,89,0.00,,---,0.00,VWS V14.01,2013-01-24 10:12:00,
2013-01-24 05:17:00,13.8,11.2,30.16,SW,221,0.0,0.0,89,0.00,,---,0.00,VWS V14.01,2013-01-24 10:17:00,
2013-01-24 05:22:00,13.7,11.1,30.16,SW,221,0.0,0.0,89,0.00,,---,0.00,VWS V14.01,2013-01-24 10:22:00,
2013-01-24 05:27:00,13.7,11.1,30.16,SW,221,0.0,0.0,89,0.00,,---,0.00,VWS V14.01,2013-01-24 10:27:00,
2013-01-24 05:32:00,13.7,11.1,30.16,SW,223,0.0,0.0,89,0.00,,---,0.00,VWS V14.01,2013-01-24 10:32:00,
2013-01-24 05:37:00,13.6,11.0,30.17,SW,222,0.0,0.0,89,0.00,,---,0.00,VWS V14.01,2013-01-24 10:37:00,
2013-01-24 05:42:00,13.6,11.2,30.17,SW,222,0.0,1.0,90,0.00,,---,0.00,VWS V14.01,2013-01-24 10:42:00,
2013-01-24 05:47:00,13.6,11.2,30.17,SW,222,0.0,0.0,90,0.00,,---,0.00,VWS V14.01,2013-01-24 10:47:00,
2013-01-24 05:52:00,13.7,11.3,30.18,SW,235,0.0,0.0,90,0.00,,---,0.00,VWS V14.01,2013-01-24 10:52:00,
2013-01-24 05:57:00,13.7,11.3,30.18,SW,235,0.0,0.0,90,0.00,,---,0.00,VWS V14.01,2013-01-24 10:57:00,
2013-01-24 06:02:00,13.7,11.3,30.18,SW,235,0.0,0.0,90,0.00,,---,0.00,VWS V14.01,2013-01-24 11:02:00,
2013-01-24 06:07:00,13.7,11.3,30.18,North,356,0.0,0.0,90,0.00,,---,0.00,VWS V14.01,2013-01-24 11:07:00,
2013-01-24 06:12:00,13.7,11.3,30.18,North,356,0.0,0.0,90,0.00,,---,0.00,VWS V14.01,2013-01-24 11:12:00,
2013-01-24 06:17:00,13.6,11.2,30.19,ENE,66,0.0,1.0,90,0.00,,---,0.00,VWS V14.01,2013-01-24 11:17:00,
2013-01-24 06:22:00,13.6,11.2,30.20,North,358,0.0,0.0,90,0.00,,---,0.00,VWS V14.01,2013-01-24 11:22:00,
2013-01-24 06:27:00,13.6,11.2,30.20,North,354,0.0,0.0,90,0.00,,---,0.00,VWS V14.01,2013-01-24 11:27:00,
2013-01-24 06:33:00,13.6,11.2,30.21,SW,222,0.0,0.0,90,0.00,,---,0.00,VWS V14.01,2013-01-24 11:33:00,
2013-01-24 06:38:00,13.5,11.1,30.21,SW,229,0.0,0.0,90,0.00,,---,0.00,VWS V14.01,2013-01-24 11:38:00,
2013-01-24 06:43:00,13.4,11.0,30.22,SW,229,0.0,0.0,90,0.00,,---,0.00,VWS V14.01,2013-01-24 11:43:00,
2013-01-24 06:48:00,13.4,11.0,30.22,SW,229,0.0,0.0,90,0.00,,---,0.00,VWS V14.01,2013-01-24 11:48:00,
2013-01-24 06:53:00,13.2,10.6,30.23,NW,304,0.0,0.0,89,0.00,,---,0.00,VWS V14.01,2013-01-24 11:53:00,
2013-01-24 06:58:00,13.2,10.8,30.23,WNW,288,0.0,0.0,90,0.00,,---,0.00,VWS V14.01,2013-01-24 11:58:00,
2013-01-24 07:03:00,13.1,10.7,30.23,WNW,288,0.0,0.0,90,0.00,,---,0.00,VWS V14.01,2013-01-24 12:03:00,
2013-01-24 07:08:00,13.0,10.6,30.24,WNW,292,0.0,0.0,90,0.00,,---,0.00,VWS V14.01,2013-01-24 12:08:00,
2013-01-24 07:13:00,12.9,10.3,30.24,NW,315,0.0,0.0,89,0.00,,---,0.00,VWS V14.01,2013-01-24 12:13:00,
2013-01-24 07:18:00,12.8,10.2,30.24,NW,314,0.0,0.0,89,0.00,,---,0.00,VWS V14.01,2013-01-24 12:18:00,
2013-01-24 07:23:00,12.6,10.0,30.25,WSW,242,0.0,0.0,89,0.00,,---,0.00,VWS V14.01,2013-01-24 12:23:00,
2013-01-24 07:28:00,12.5,9.9,30.25,West,266,0.0,0.0,89,0.00,,---,0.00,VWS V14.01,2013-01-24 12:28:00,
2013-01-24 07:33:00,12.3,9.7,30.25,NNW,327,0.0,0.0,89,0.00,,---,0.00,VWS V14.01,2013-01-24 12:33:00,
2013-01-24 07:39:00,12.2,9.6,30.26,West,262,0.0,0.0,89,0.00,,---,0.00,VWS V14.01,2013-01-24 12:39:00,
2013-01-24 07:44:00,12.1,9.5,30.26,WNW,297,0.0,0.0,89,0.00,,---,0.00,VWS V14.01,2013-01-24 12:44:00,
2013-01-24 07:49:00,12.0,9.4,30.26,NW,321,0.0,0.0,89,0.00,,---,0.00,VWS V14.01,2013-01-24 12:49:00,
2013-01-24 07:54:00,12.0,9.6,30.27,WNW,284,0.0,1.0,90,0.00,,---,0.00,VWS V14.01,2013-01-24 12:54:00,
2013-01-24 07:59:00,12.1,9.7,30.27,WNW,284,0.0,0.0,90,0.00,,---,0.00,VWS V14.01,2013-01-24 12:59:00,
2013-01-24 08:04:00,12.2,9.8,30.27,WNW,300,0.0,1.0,90,0.00,,---,0.00,VWS V14.01,2013-01-24 13:04:00,
2013-01-24 08:09:00,12.4,10.0,30.28,West,272,0.0,1.0,90,0.00,,---,0.00,VWS V14.01,2013-01-24 13:09:00,
2013-01-24 08:14:00,12.6,10.2,30.28,WNW,297,0.0,0.0,90,0.00,,---,0.00,VWS V14.01,2013-01-24 13:14:00,
2013-01-24 08:19:00,13.1,11.0,30.28,NNW,331,0.0,0.0,91,0.00,,---,0.00,VWS V14.01,2013-01-24 13:19:00,
2013-01-24 08:24:00,13.3,10.9,30.29,NW,325,0.0,0.0,90,0.00,,---,0.00,VWS V14.01,2013-01-24 13:24:00,
2013-01-24 08:29:00,13.4,11.0,30.29,NNE,12,0.0,0.0,90,0.00,,---,0.00,VWS V14.01,2013-01-24 13:29:00,
2013-01-24 08:34:00,13.4,10.8,30.30,NW,304,0.0,0.0,89,0.00,,---,0.00,VWS V14.01,2013-01-24 13:34:00,
2013-01-24 08:39:00,13.5,10.9,30.30,WNW,284,0.0,0.0,89,0.00,,---,0.00,VWS V14.01,2013-01-24 13:39:00,
2013-01-24 08:45:00,13.6,10.7,30.31,West,260,0.0,0.0,88,0.00,,---,0.00,VWS V14.01,2013-01-24 13:45:00,
2013-01-24 08:50:00,14.0,11.1,30.31,NE,49,0.0,0.0,88,0.00,,---,0.00,VWS V14.01,2013-01-24 13:50:00,
2013-01-24 08:55:00,14.3,11.1,30.31,NNW,345,0.0,1.0,87,0.00,,---,0.00,VWS V14.01,2013-01-24 13:55:00,
2013-01-24 09:00:00,14.7,11.3,30.31,WNW,300,0.0,0.0,86,0.00,,---,0.00,VWS V14.01,2013-01-24 14:00:00,
2013-01-24 09:05:00,14.8,11.4,30.32,NNW,337,0.0,0.0,86,0.00,,---,0.00,VWS V14.01,2013-01-24 14:05:00,
2013-01-24 09:10:00,15.0,11.1,30.32,NW,316,0.0,0.0,84,0.00,,---,0.00,VWS V14.01,2013-01-24 14:10:00,
2013-01-24 09:15:00,15.1,10.9,30.32,NW,312,0.0,0.0,83,0.00,,---,0.00,VWS V14.01,2013-01-24 14:15:00,
2013-01-24 09:20:00,15.4,11.2,30.33,NW,316,0.0,0.0,83,0.00,,---,0.00,VWS V14.01,2013-01-24 14:20:00,
2013-01-24 09:25:00,15.5,11.0,30.33,WNW,298,1.0,2.0,82,0.00,,---,0.00,VWS V14.01,2013-01-24 14:25:00,
2013-01-24 09:30:00,15.4,10.9,30.33,NE,56,0.0,0.0,82,0.00,,---,0.00,VWS V14.01,2013-01-24 14:30:00,
2013-01-24 09:35:00,15.9,11.4,30.34,NNW,338,0.0,1.0,82,0.00,,---,0.00,VWS V14.01,2013-01-24 14:35:00,
2013-01-24 09:40:00,16.1,11.3,30.34,NNE,29,0.0,0.0,81,0.00,,---,0.00,VWS V14.01,2013-01-24 14:40:00,
2013-01-24 09:45:00,16.3,11.5,30.34,WNW,297,0.0,1.0,81,0.00,,---,0.00,VWS V14.01,2013-01-24 14:45:00,
2013-01-24 09:50:00,16.7,11.6,30.34,NW,318,0.0,0.0,80,0.00,,---,0.00,VWS V14.01,2013-01-24 14:50:00,
2013-01-24 09:55:00,16.9,11.5,30.34,SSW,207,0.0,0.0,79,0.00,,---,0.00,VWS V14.01,2013-01-24 14:55:00,
2013-01-24 10:00:00,17.0,11.3,30.35,North,349,0.0,1.0,78,0.00,,---,0.00,VWS V14.01,2013-01-24 15:00:00,
2013-01-24 10:06:00,17.4,12.3,30.35,WNW,288,0.0,0.0,80,0.00,,---,0.00,VWS V14.01,2013-01-24 15:06:00,
2013-01-24 10:11:00,17.5,11.5,30.35,NNE,29,1.0,1.0,77,0.00,,---,0.00,VWS V14.01,2013-01-24 15:11:00,
2013-01-24 10:16:00,17.8,12.1,30.35,NNW,347,0.0,0.0,78,0.00,,---,0.00,VWS V14.01,2013-01-24 15:16:00,
2013-01-24 10:21:00,18.4,12.4,30.35,West,274,0.0,2.0,77,0.00,,---,0.00,VWS V14.01,2013-01-24 15:21:00,
2013-01-24 10:26:00,18.8,12.5,30.35,NNE,29,0.0,1.0,76,0.00,,---,0.00,VWS V14.01,2013-01-24 15:26:00,
2013-01-24 10:31:00,19.1,11.9,30.36,NNE,15,1.0,1.0,73,0.00,,---,0.00,VWS V14.01,2013-01-24 15:31:00,
2013-01-24 10:36:00,19.2,12.0,30.36,NNW,344,0.0,0.0,73,0.00,,---,0.00,VWS V14.01,2013-01-24 15:36:00,
2013-01-24 10:41:00,18.9,11.4,30.36,WNW,300,0.0,0.0,72,0.00,,---,0.00,VWS V14.01,2013-01-24 15:41:00,
2013-01-24 10:47:00,19.2,11.4,30.37,West,280,0.0,0.0,71,0.00,,---,0.00,VWS V14.01,2013-01-24 15:47:00,
2013-01-24 10:52:00,19.8,11.9,30.37,NNE,32,1.0,2.0,71,0.00,,---,0.00,VWS V14.01,2013-01-24 15:52:00,
2013-01-24 10:57:00,19.8,11.6,30.37,NE,34,0.0,2.0,70,0.00,,---,0.00,VWS V14.01,2013-01-24 15:57:00,
2013-01-24 11:02:00,20.0,11.5,30.37,North,11,0.0,1.0,69,0.00,,---,0.00,VWS V14.01,2013-01-24 16:02:00,
2013-01-24 11:07:00,20.0,11.1,30.37,NW,305,0.0,2.0,68,0.00,,---,0.00,VWS V14.01,2013-01-24 16:07:00,
2013-01-24 11:12:00,20.3,12.1,30.37,NE,36,0.0,0.0,70,0.00,,---,0.00,VWS V14.01,2013-01-24 16:12:00,
2013-01-24 11:17:00,20.4,11.2,30.38,West,280,0.0,1.0,67,0.00,,---,0.00,VWS V14.01,2013-01-24 16:17:00,
2013-01-24 11:23:00,20.5,11.3,30.38,West,262,0.0,0.0,67,0.00,,---,0.00,VWS V14.01,2013-01-24 16:23:00,
2013-01-24 11:28:00,20.5,11.3,30.38,NNW,338,2.0,3.0,67,0.00,,---,0.00,VWS V14.01,2013-01-24 16:28:00,
2013-01-24 11:33:00,21.0,11.1,30.38,NW,308,1.0,2.0,65,0.00,,---,0.00,VWS V14.01,2013-01-24 16:33:00,
2013-01-24 11:38:00,21.7,11.4,30.38,NW,312,1.0,2.0,64,0.00,,---,0.00,VWS V14.01,2013-01-24 16:38:00,
2013-01-24 11:43:00,21.4,11.1,30.38,North,356,2.0,2.0,64,0.00,,---,0.00,VWS V14.01,2013-01-24 16:43:00,
2013-01-24 11:48:00,21.4,10.8,30.38,NE,46,0.0,3.0,63,0.00,,---,0.00,VWS V14.01,2013-01-24 16:48:00,
2013-01-24 11:54:00,21.7,11.1,30.38,NNE,29,0.0,0.0,63,0.00,,---,0.00,VWS V14.01,2013-01-24 16:54:00,
2013-01-24 11:59:00,22.2,10.8,30.38,NE,54,0.0,2.0,61,0.00,,---,0.00,VWS V14.01,2013-01-24 16:59:00,
2013-01-24 12:04:00,22.1,9.6,30.38,North,356,3.0,3.0,58,0.00,,---,0.00,VWS V14.01,2013-01-24 17:04:00,
2013-01-24 12:09:00,21.8,10.1,30.38,NNE,22,0.0,2.0,60,0.00,,---,0.00,VWS V14.01,2013-01-24 17:09:00,
2013-01-24 12:14:00,21.6,9.5,30.39,North,11,1.0,1.0,59,0.00,,---,0.00,VWS V14.01,2013-01-24 17:14:00,
2013-01-24 12:19:00,21.3,8.8,30.39,North,358,1.0,3.0,58,0.00,,---,0.00,VWS V14.01,2013-01-24 17:19:00,
2013-01-24 12:24:00,21.2,9.5,30.39,North,5,3.0,3.0,60,0.00,,---,0.00,VWS V14.01,2013-01-24 17:24:00,
2013-01-24 12:29:00,21.0,7.8,30.39,NW,316,2.0,4.0,56,0.00,,---,0.00,VWS V14.01,2013-01-24 17:29:00,
2013-01-24 12:34:00,21.1,7.9,30.39,WSW,248,0.0,5.0,56,0.00,,---,0.00,VWS V14.01,2013-01-24 17:34:00,
2013-01-24 12:39:00,21.6,7.9,30.39,NNE,26,1.0,4.0,55,0.00,,---,0.00,VWS V14.01,2013-01-24 17:39:00,
2013-01-24 12:44:00,21.9,8.6,30.40,NNE,23,0.0,1.0,56,0.00,,---,0.00,VWS V14.01,2013-01-24 17:44:00,
2013-01-24 12:50:00,21.7,7.2,30.40,WNW,301,1.0,2.0,53,0.00,,---,0.00,VWS V14.01,2013-01-24 17:50:00,
2013-01-24 12:55:00,21.3,8.1,30.40,East,89,1.0,4.0,56,0.00,,---,0.00,VWS V14.01,2013-01-24 17:55:00,
2013-01-24 13:00:00,21.2,6.8,30.40,NE,43,0.0,3.0,53,0.00,,---,0.00,VWS V14.01,2013-01-24 18:00:00,
2013-01-24 13:05:00,21.0,7.4,30.40,NW,323,0.0,2.0,55,0.00,,---,0.00,VWS V14.01,2013-01-24 18:05:00,
2013-01-24 13:10:00,21.3,6.8,30.40,NNW,345,3.0,3.0,53,0.00,,---,0.00,VWS V14.01,2013-01-24 18:10:00,
2013-01-24 13:15:00,21.3,6.4,30.40,NNW,338,1.0,2.0,52,0.00,,---,0.00,VWS V14.01,2013-01-24 18:15:00,
2013-01-24 13:20:00,21.5,6.6,30.40,North,356,2.0,3.0,52,0.00,,---,0.00,VWS V14.01,2013-01-24 18:20:00,
2013-01-24 13:25:00,21.6,6.3,30.40,NW,304,2.0,3.0,51,0.00,,---,0.00,VWS V14.01,2013-01-24 18:25:00,
2013-01-24 13:30:00,21.6,5.0,30.40,North,7,2.0,2.0,48,0.00,,---,0.00,VWS V14.01,2013-01-24 18:30:00,
2013-01-24 13:35:00,21.4,4.8,30.40,WNW,299,4.0,5.0,48,0.00,,---,0.00,VWS V14.01,2013-01-24 18:35:00,
2013-01-24 13:41:00,20.8,3.8,30.40,NNW,331,2.0,4.0,47,0.00,,---,0.00,VWS V14.01,2013-01-24 18:41:00,
2013-01-24 13:46:00,20.6,4.5,30.40,NNW,333,4.0,6.0,49,0.00,,---,0.00,VWS V14.01,2013-01-24 18:46:00,
2013-01-24 13:51:00,20.4,3.4,30.40,NNW,335,1.0,1.0,47,0.00,,---,0.00,VWS V14.01,2013-01-24 18:51:00,
2013-01-24 13:56:00,20.2,3.7,30.40,WNW,284,0.0,1.0,48,0.00,,---,0.00,VWS V14.01,2013-01-24 18:56:00,
2013-01-24 14:01:00,20.2,5.4,30.40,NW,305,1.0,3.0,52,0.00,,---,0.00,VWS V14.01,2013-01-24 19:01:00,
2013-01-24 14:06:00,20.2,5.4,30.40,WNW,288,0.0,1.0,52,0.00,,---,0.00,VWS V14.01,2013-01-24 19:06:00,
2013-01-24 14:11:00,20.4,5.6,30.40,NE,51,0.0,0.0,52,0.00,,---,0.00,VWS V14.01,2013-01-24 19:11:00,
2013-01-24 14:17:00,20.4,3.4,30.40,SE,140,0.0,1.0,47,0.00,,---,0.00,VWS V14.01,2013-01-24 19:17:00,
2013-01-24 14:22:00,20.2,5.0,30.41,NE,53,1.0,1.0,51,0.00,,---,0.00,VWS V14.01,2013-01-24 19:22:00,
2013-01-24 14:27:00,20.2,3.7,30.41,NNW,343,1.0,2.0,48,0.00,,---,0.00,VWS V14.01,2013-01-24 19:27:00,
2013-01-24 14:32:00,20.5,3.5,30.41,SE,134,2.0,3.0,47,0.00,,---,0.00,VWS V14.01,2013-01-24 19:32:00,
2013-01-24 14:37:00,20.9,4.8,30.41,NNW,328,0.0,1.0,49,0.00,,---,0.00,VWS V14.01,2013-01-24 19:37:00,
2013-01-24 14:43:00,21.3,5.1,30.40,ENE,62,0.0,1.0,49,0.00,,---,0.00,VWS V14.01,2013-01-24 19:43:00,
2013-01-24 14:48:00,21.6,5.0,30.41,NNW,338,1.0,4.0,48,0.00,,---,0.00,VWS V14.01,2013-01-24 19:48:00,
2013-01-24 14:53:00,21.7,5.1,30.42,SW,236,0.0,2.0,48,0.00,,---,0.00,VWS V14.01,2013-01-24 19:53:00,
2013-01-24 14:58:00,21.9,5.7,30.42,NW,316,0.0,2.0,49,0.00,,---,0.00,VWS V14.01,2013-01-24 19:58:00,
2013-01-24 15:03:00,21.9,4.3,30.42,NE,46,0.0,3.0,46,0.00,,---,0.00,VWS V14.01,2013-01-24 20:03:00,
2013-01-24 15:08:00,21.7,5.9,30.42,South,184,0.0,0.0,50,0.00,,---,0.00,VWS V14.01,2013-01-24 20:08:00,
2013-01-24 15:13:00,21.6,4.5,30.42,NE,37,1.0,1.0,47,0.00,,---,0.00,VWS V14.01,2013-01-24 20:13:00,
2013-01-24 15:18:00,21.8,5.6,30.43,NNW,339,0.0,1.0,49,0.00,,---,0.00,VWS V14.01,2013-01-24 20:18:00,
2013-01-24 15:23:00,21.9,5.2,30.43,NW,318,2.0,2.0,48,0.00,,---,0.00,VWS V14.01,2013-01-24 20:23:00,
2013-01-24 15:28:00,21.6,5.4,30.43,NW,306,5.0,5.0,49,0.00,,---,0.00,VWS V14.01,2013-01-24 20:28:00,
2013-01-24 15:33:00,21.1,4.5,30.43,WNW,303,2.0,5.0,48,0.00,,---,0.00,VWS V14.01,2013-01-24 20:33:00,
2013-01-24 15:39:00,20.7,5.0,30.44,NW,315,1.0,2.0,50,0.00,,---,0.00,VWS V14.01,2013-01-24 20:39:00,
2013-01-24 15:44:00,20.4,5.2,30.45,NE,46,0.0,1.0,51,0.00,,---,0.00,VWS V14.01,2013-01-24 20:44:00,
2013-01-24 15:49:00,20.4,5.2,30.45,NNW,337,3.0,4.0,51,0.00,,---,0.00,VWS V14.01,2013-01-24 20:49:00,
2013-01-24 15:54:00,20.8,6.0,30.45,SE,134,1.0,2.0,52,0.00,,---,0.00,VWS V14.01,2013-01-24 20:54:00,
2013-01-24 15:59:00,20.9,4.8,30.44,North,11,0.0,3.0,49,0.00,,---,0.00,VWS V14.01,2013-01-24 20:59:00,
2013-01-24 16:04:00,20.8,5.5,30.45,SSW,196,0.0,2.0,51,0.00,,---,0.00,VWS V14.01,2013-01-24 21:04:00,
2013-01-24 16:09:00,20.5,3.9,30.45,WNW,301,1.0,4.0,48,0.00,,---,0.00,VWS V14.01,2013-01-24 21:09:00,
2013-01-24 16:14:00,20.3,4.2,30.46,NW,313,1.0,2.0,49,0.00,,---,0.00,VWS V14.01,2013-01-24 21:14:00,
2013-01-24 16:19:00,20.2,4.1,30.45,WNW,301,0.0,3.0,49,0.00,,---,0.00,VWS V14.01,2013-01-24 21:19:00,
2013-01-24 16:24:00,20.1,3.1,30.45,NW,309,0.0,4.0,47,0.00,,---,0.00,VWS V14.01,2013-01-24 21:24:00,
2013-01-24 16:29:00,20.0,4.4,30.45,NW,318,1.0,2.0,50,0.00,,---,0.00,VWS V14.01,2013-01-24 21:29:00,
2013-01-24 16:35:00,19.9,4.3,30.45,NW,313,0.0,0.0,50,0.00,,---,0.00,VWS V14.01,2013-01-24 21:35:00,
2013-01-24 16:40:00,19.7,4.1,30.45,WNW,292,1.0,1.0,50,0.00,,---,0.00,VWS V14.01,2013-01-24 21:40:00,
2013-01-24 16:45:00,19.6,4.0,30.46,ENE,64,0.0,2.0,50,0.00,,---,0.00,VWS V14.01,2013-01-24 21:45:00,
2013-01-24 16:50:00,19.5,3.9,30.46,West,269,0.0,2.0,50,0.00,,---,0.00,VWS V14.01,2013-01-24 21:50:00,
2013-01-24 16:55:00,19.3,3.7,30.46,NNW,330,0.0,2.0,50,0.00,,---,0.00,VWS V14.01,2013-01-24 21:55:00,
2013-01-24 17:00:00,19.2,4.1,30.46,NE,56,0.0,2.0,51,0.00,,---,0.00,VWS V14.01,2013-01-24 22:00:00,
2013-01-24 17:05:00,19.3,4.6,30.46,West,271,0.0,2.0,52,0.00,,---,0.00,VWS V14.01,2013-01-24 22:05:00,
2013-01-24 17:10:00,19.3,4.6,30.47,WNW,283,0.0,1.0,52,0.00,,---,0.00,VWS V14.01,2013-01-24 22:10:00,
2013-01-24 17:15:00,19.1,4.8,30.47,NNE,30,0.0,1.0,53,0.00,,---,0.00,VWS V14.01,2013-01-24 22:15:00,
2013-01-24 17:20:00,18.8,4.5,30.48,West,259,0.0,0.0,53,0.00,,---,0.00,VWS V14.01,2013-01-24 22:20:00,
2013-01-24 17:26:00,18.5,3.8,30.48,WSW,257,0.0,0.0,52,0.00,,---,0.00,VWS V14.01,2013-01-24 22:26:00,
2013-01-24 17:32:00,18.5,4.2,30.48,WSW,250,0.0,0.0,53,0.00,,---,0.00,VWS V14.01,2013-01-24 22:32:00,
2013-01-24 17:36:00,18.3,4.1,30.48,WNW,291,0.0,0.0,53,0.00,,---,0.00,VWS V14.01,2013-01-24 22:36:00,
2013-01-24 17:41:00,18.2,4.4,30.49,NNW,339,0.0,0.0,54,0.00,,---,0.00,VWS V14.01,2013-01-24 22:41:00,
2013-01-24 17:47:00,18.0,4.6,30.49,WNW,288,0.0,0.0,55,0.00,,---,0.00,VWS V14.01,2013-01-24 22:47:00,
2013-01-24 17:52:00,18.0,4.6,30.49,NNW,338,1.0,1.0,55,0.00,,---,0.00,VWS V14.01,2013-01-24 22:52:00,
2013-01-24 17:57:00,17.9,4.5,30.50,WNW,297,0.0,0.0,55,0.00,,---,0.00,VWS V14.01,2013-01-24 22:57:00,
2013-01-24 18:02:00,17.6,4.2,30.50,WNW,287,0.0,0.0,55,0.00,,---,0.00,VWS V14.01,2013-01-24 23:02:00,
2013-01-24 18:07:00,17.5,4.1,30.50,WNW,291,0.0,1.0,55,0.00,,---,0.00,VWS V14.01,2013-01-24 23:07:00,
2013-01-24 18:12:00,17.3,4.7,30.50,West,277,0.0,1.0,57,0.00,,---,0.00,VWS V14.01,2013-01-24 23:12:00,
2013-01-24 18:17:00,17.1,4.5,30.49,NW,323,0.0,1.0,57,0.00,,---,0.00,VWS V14.01,2013-01-24 23:17:00,
2013-01-24 18:22:00,17.0,4.0,30.50,WSW,241,0.0,0.0,56,0.00,,---,0.00,VWS V14.01,2013-01-24 23:22:00,
2013-01-24 18:27:00,16.9,3.9,30.50,WSW,252,0.0,1.0,56,0.00,,---,0.00,VWS V14.01,2013-01-24 23:27:00,
2013-01-24 18:32:00,17.0,4.0,30.51,West,274,0.0,0.0,56,0.00,,---,0.00,VWS V14.01,2013-01-24 23:32:00,
2013-01-24 18:37:00,16.9,3.9,30.51,WNW,288,0.0,1.0,56,0.00,,---,0.00,VWS V14.01,2013-01-24 23:37:00,
2013-01-24 18:43:00,16.8,3.8,30.51,WNW,295,0.0,1.0,56,0.00,,---,0.00,VWS V14.01,2013-01-24 23:43:00,
2013-01-24 18:48:00,16.8,3.8,30.51,West,267,0.0,1.0,56,0.00,,---,0.00,VWS V14.01,2013-01-24 23:48:00,
2013-01-24 18:53:00,16.7,4.1,30.51,WNW,297,0.0,0.0,57,0.00,,---,0.00,VWS V14.01,2013-01-24 23:53:00,
2013-01-24 18:58:00,16.7,3.7,30.51,WNW,283,0.0,1.0,56,0.00,,---,0.00,VWS V14.01,2013-01-24 23:58:00,
2013-01-24 19:03:00,16.5,3.5,30.51,West,266,0.0,0.0,56,0.00,,---,0.00,VWS V14.01,2013-01-25 00:03:00,
2013-01-24 19:08:00,16.4,3.8,30.52,WNW,291,0.0,1.0,57,0.00,,---,0.00,VWS V14.01,2013-01-25 00:08:00,
2013-01-24 19:13:00,16.4,3.8,30.53,WNW,292,1.0,1.0,57,0.00,,---,0.00,VWS V14.01,2013-01-25 00:13:00,
2013-01-24 19:18:00,16.4,4.6,30.52,WNW,288,0.0,1.0,59,0.00,,---,0.00,VWS V14.01,2013-01-25 00:18:00,
2013-01-24 19:23:00,16.2,4.0,30.53,North,4,0.0,1.0,58,0.00,,---,0.00,VWS V14.01,2013-01-25 00:23:00,
2013-01-24 19:29:00,16.1,3.6,30.53,SSW,207,0.0,0.0,57,0.00,,---,0.00,VWS V14.01,2013-01-25 00:29:00,
2013-01-24 19:34:00,16.0,3.8,30.53,WSW,239,0.0,0.0,58,0.00,,---,0.00,VWS V14.01,2013-01-25 00:34:00,
2013-01-24 19:39:00,15.9,3.8,30.53,SW,228,0.0,0.0,58,0.00,,---,0.00,VWS V14.01,2013-01-25 00:39:00,
2013-01-24 19:44:00,15.6,3.1,30.53,SE,133,0.0,0.0,57,0.00,,---,0.00,VWS V14.01,2013-01-25 00:44:00,
2013-01-24 19:49:00,15.5,3.4,30.53,West,274,1.0,1.0,58,0.00,,---,0.00,VWS V14.01,2013-01-25 00:49:00,
2013-01-24 19:54:00,15.6,3.5,30.53,WNW,293,0.0,0.0,58,0.00,,---,0.00,VWS V14.01,2013-01-25 00:54:00,
2013-01-24 19:59:00,15.6,3.1,30.53,NW,317,0.0,0.0,57,0.00,,---,0.00,VWS V14.01,2013-01-25 00:59:00,
2013-01-24 20:05:00,15.6,3.8,30.53,WNW,294,0.0,1.0,59,0.00,,---,0.00,VWS V14.01,2013-01-25 01:05:00,
2013-01-24 20:10:00,15.4,3.7,30.52,NW,317,0.0,1.0,59,0.00,,---,0.00,VWS V14.01,2013-01-25 01:10:00,
2013-01-24 20:15:00,15.4,3.7,30.52,NW,317,0.0,1.0,59,0.00,,---,0.00,VWS V14.01,2013-01-25 01:15:00,
2013-01-24 20:20:00,15.4,3.3,30.53,West,277,0.0,0.0,58,0.00,,---,0.00,VWS V14.01,2013-01-25 01:20:00,
2013-01-24 20:25:00,15.3,3.2,30.53,WSW,255,0.0,1.0,58,0.00,,---,0.00,VWS V14.01,2013-01-25 01:25:00,
2013-01-24 20:30:00,15.3,3.2,30.53,WNW,289,0.0,1.0,58,0.00,,---,0.00,VWS V14.01,2013-01-25 01:30:00,
2013-01-24 20:35:00,15.2,3.1,30.52,WNW,291,0.0,0.0,58,0.00,,---,0.00,VWS V14.01,2013-01-25 01:35:00,
2013-01-24 20:40:00,15.1,3.0,30.52,WNW,287,0.0,1.0,58,0.00,,---,0.00,VWS V14.01,2013-01-25 01:40:00,
2013-01-24 20:45:00,15.2,3.1,30.52,WNW,283,0.0,1.0,58,0.00,,---,0.00,VWS V14.01,2013-01-25 01:45:00,
2013-01-24 20:51:00,15.3,2.8,30.52,WNW,290,0.0,1.0,57,0.00,,---,0.00,VWS V14.01,2013-01-25 01:51:00,
2013-01-24 20:56:00,15.1,3.0,30.52,NW,312,0.0,1.0,58,0.00,,---,0.00,VWS V14.01,2013-01-25 01:56:00,
2013-01-24 21:01:00,14.9,2.8,30.52,WNW,291,0.0,1.0,58,0.00,,---,0.00,VWS V14.01,2013-01-25 02:01:00,
2013-01-24 21:06:00,14.8,2.3,30.52,NW,311,0.0,1.0,57,0.00,,---,0.00,VWS V14.01,2013-01-25 02:06:00,
2013-01-24 21:11:00,14.9,2.4,30.52,WSW,255,0.0,0.0,57,0.00,,---,0.00,VWS V14.01,2013-01-25 02:11:00,
2013-01-24 21:16:00,14.9,2.0,30.52,WNW,285,0.0,3.0,56,0.00,,---,0.00,VWS V14.01,2013-01-25 02:16:00,
2013-01-24 21:21:00,14.9,1.7,30.52,West,262,0.0,0.0,55,0.00,,---,0.00,VWS V14.01,2013-01-25 02:21:00,
2013-01-24 21:27:00,14.8,1.6,30.52,WNW,284,0.0,0.0,55,0.00,,---,0.00,VWS V14.01,2013-01-25 02:27:00,
2013-01-24 21:32:00,14.6,1.8,30.52,NNW,334,0.0,0.0,56,0.00,,---,0.00,VWS V14.01,2013-01-25 02:32:00,
2013-01-24 21:37:00,14.5,1.7,30.52,West,271,0.0,0.0,56,0.00,,---,0.00,VWS V14.01,2013-01-25 02:37:00,
2013-01-24 21:42:00,14.4,1.2,30.52,WSW,256,0.0,0.0,55,0.00,,---,0.00,VWS V14.01,2013-01-25 02:42:00,
2013-01-24 21:47:00,14.4,1.6,30.52,WNW,297,1.0,1.0,56,0.00,,---,0.00,VWS V14.01,2013-01-25 02:47:00,
2013-01-24 21:52:00,14.1,1.3,30.51,WNW,301,1.0,2.0,56,0.00,,---,0.00,VWS V14.01,2013-01-25 02:52:00,
2013-01-24 21:57:00,14.2,1.0,30.52,NW,309,0.0,1.0,55,0.00,,---,0.00,VWS V14.01,2013-01-25 02:57:00,
2013-01-24 22:02:00,14.2,1.0,30.52,WNW,290,0.0,1.0,55,0.00,,---,0.00,VWS V14.01,2013-01-25 03:02:00,
2013-01-24 22:07:00,14.2,1.0,30.52,WSW,248,2.0,2.0,55,0.00,,---,0.00,VWS V14.01,2013-01-25 03:07:00,
2013-01-24 22:13:00,14.2,1.4,30.52,WNW,289,2.0,2.0,56,0.00,,---,0.00,VWS V14.01,2013-01-25 03:13:00,
2013-01-24 22:18:00,14.1,0.9,30.52,WNW,285,0.0,0.0,55,0.00,,---,0.00,VWS V14.01,2013-01-25 03:18:00,
2013-01-24 22:23:00,14.2,0.6,30.52,WNW,283,0.0,1.0,54,0.00,,---,0.00,VWS V14.01,2013-01-25 03:23:00,
2013-01-24 22:28:00,14.1,0.5,30.52,NW,307,2.0,2.0,54,0.00,,---,0.00,VWS V14.01,2013-01-25 03:28:00,
2013-01-24 22:33:00,14.0,1.2,30.52,NW,317,2.0,3.0,56,0.00,,---,0.00,VWS V14.01,2013-01-25 03:33:00,
2013-01-24 22:38:00,13.7,1.3,30.51,WNW,300,2.0,3.0,57,0.00,,---,0.00,VWS V14.01,2013-01-25 03:38:00,
2013-01-24 22:43:00,13.6,0.8,30.51,NW,315,1.0,1.0,56,0.00,,---,0.00,VWS V14.01,2013-01-25 03:43:00,
2013-01-24 22:48:00,13.7,0.5,30.52,WSW,252,0.0,1.0,55,0.00,,---,0.00,VWS V14.01,2013-01-25 03:48:00,
2013-01-24 22:53:00,13.6,0.4,30.52,SW,217,1.0,1.0,55,0.00,,---,0.00,VWS V14.01,2013-01-25 03:53:00,
2013-01-24 22:59:00,13.5,0.3,30.52,WNW,285,0.0,1.0,55,0.00,,---,0.00,VWS V14.01,2013-01-25 03:59:00,
2013-01-24 23:04:00,13.3,0.2,30.52,NW,313,1.0,1.0,55,0.00,,---,0.00,VWS V14.01,2013-01-25 04:04:00,
2013-01-24 23:09:00,13.3,0.6,30.52,WNW,289,0.0,2.0,56,0.00,,---,0.00,VWS V14.01,2013-01-25 04:09:00,
2013-01-24 23:14:00,13.2,0.4,30.52,West,280,1.0,2.0,56,0.00,,---,0.00,VWS V14.01,2013-01-25 04:14:00,
2013-01-24 23:19:00,13.1,0.7,30.52,WNW,284,0.0,1.0,57,0.00,,---,0.00,VWS V14.01,2013-01-25 04:19:00,
2013-01-24 23:24:00,13.0,0.3,30.53,SSW,195,0.0,0.0,56,0.00,,---,0.00,VWS V14.01,2013-01-25 04:24:00,
2013-01-24 23:29:00,12.9,0.2,30.53,WNW,283,3.0,5.0,56,0.00,,---,0.00,VWS V14.01,2013-01-25 04:29:00,
2013-01-24 23:34:00,13.1,0.0,30.53,WSW,246,0.0,1.0,55,0.00,,---,0.00,VWS V14.01,2013-01-25 04:34:00,
2013-01-24 23:39:00,13.1,0.0,30.53,WNW,293,0.0,1.0,55,0.00,,---,0.00,VWS V14.01,2013-01-25 04:39:00,
2013-01-24 23:45:00,13.0,-0.1,30.53,West,267,0.0,0.0,55,0.00,,---,0.00,VWS V14.01,2013-01-25 04:45:00,
2013-01-24 23:50:00,12.9,0.6,30.53,WNW,303,1.0,1.0,57,0.00,,---,0.00,VWS V14.01,2013-01-25 04:50:00,
2013-01-24 23:55:00,13.0,0.6,30.53,WNW,293,0.0,2.0,57,0.00,,---,0.00,VWS V14.01,2013-01-25 04:55:00,